<?xml version="1.0" encoding="UTF-8" standalone="no" ?>
<gpx xmlns="http://www.topografix.com/GPX/1/1" xmlns:xsi="http://www.w3.org/2001/XMLSchema-instance" xsi:schemaLocation="http://www.topografix.com/GPX/1/1 http://www.topografix.com/GPX/1/1/gpx.xsd" version="1.1" creator="VisuGPX - https://www.visugpx.com">
  <metadata>
    <name>Tour de Rezé</name>
    <desc><![CDATA[Randonnée de 14,3km]]></desc>
  </metadata>
  <trk>
    <name><![CDATA[Tour de Rezé_1]]></name>
    <trkseg>
      <trkpt lat="47.19149" lon="-1.54448">
        <ele>6.6</ele>
        <time>2012-09-16T06:58:37Z</time>
      </trkpt>
      <trkpt lat="47.19134" lon="-1.54311">
        <ele>4.4</ele>
        <time>2012-09-16T06:58:37Z</time>
      </trkpt>
      <trkpt lat="47.19081" lon="-1.54177">
        <ele>4.1</ele>
        <time>2012-09-16T06:58:37Z</time>
      </trkpt>
      <trkpt lat="47.19015" lon="-1.54076">
        <ele>4.3</ele>
        <time>2012-09-16T06:58:37Z</time>
      </trkpt>
      <trkpt lat="47.18974" lon="-1.53955">
        <ele>3.9</ele>
        <time>2012-09-16T06:58:37Z</time>
      </trkpt>
      <trkpt lat="47.19032" lon="-1.53842">
        <ele>4</ele>
        <time>2012-09-16T06:58:37Z</time>
      </trkpt>
      <trkpt lat="47.19011" lon="-1.53742">
        <ele>3.7</ele>
        <time>2012-09-16T06:58:37Z</time>
      </trkpt>
      <trkpt lat="47.18932" lon="-1.53673">
        <ele>3.6</ele>
        <time>2012-09-16T06:58:37Z</time>
      </trkpt>
      <trkpt lat="47.18846" lon="-1.53621">
        <ele>2.8</ele>
        <time>2012-09-16T06:58:37Z</time>
      </trkpt>
      <trkpt lat="47.18756" lon="-1.53592">
        <ele>3</ele>
        <time>2012-09-16T06:58:37Z</time>
      </trkpt>
      <trkpt lat="47.18667" lon="-1.53563">
        <ele>4</ele>
        <time>2012-09-16T06:58:37Z</time>
      </trkpt>
      <trkpt lat="47.18582" lon="-1.53517">
        <ele>5.7</ele>
        <time>2012-09-16T06:58:37Z</time>
      </trkpt>
      <trkpt lat="47.18504" lon="-1.53439">
        <ele>6.1</ele>
        <time>2012-09-16T06:58:37Z</time>
      </trkpt>
      <trkpt lat="47.18436" lon="-1.53354">
        <ele>5.2</ele>
        <time>2012-09-16T06:58:37Z</time>
      </trkpt>
      <trkpt lat="47.18368" lon="-1.53256">
        <ele>3.1</ele>
        <time>2012-09-16T06:58:37Z</time>
      </trkpt>
      <trkpt lat="47.18297" lon="-1.53173">
        <ele>4.3</ele>
        <time>2012-09-16T06:58:37Z</time>
      </trkpt>
      <trkpt lat="47.18257" lon="-1.53054">
        <ele>6.9</ele>
        <time>2012-09-16T06:58:37Z</time>
      </trkpt>
      <trkpt lat="47.18214" lon="-1.52915">
        <ele>3.6</ele>
        <time>2012-09-16T06:58:37Z</time>
      </trkpt>
      <trkpt lat="47.18174" lon="-1.52788">
        <ele>6</ele>
        <time>2012-09-16T06:58:37Z</time>
      </trkpt>
      <trkpt lat="47.18156" lon="-1.52647">
        <ele>5.1</ele>
        <time>2012-09-16T06:58:37Z</time>
      </trkpt>
      <trkpt lat="47.18104" lon="-1.52531">
        <ele>4</ele>
        <time>2012-09-16T06:58:37Z</time>
      </trkpt>
      <trkpt lat="47.18104" lon="-1.52416">
        <ele>3.9</ele>
        <time>2012-09-16T06:58:37Z</time>
      </trkpt>
      <trkpt lat="47.18022" lon="-1.52442">
        <ele>4.1</ele>
        <time>2012-09-16T06:58:37Z</time>
      </trkpt>
      <trkpt lat="47.17979" lon="-1.52334">
        <ele>4.8</ele>
        <time>2012-09-16T06:58:37Z</time>
      </trkpt>
      <trkpt lat="47.17955" lon="-1.52209">
        <ele>5.6</ele>
        <time>2012-09-16T06:58:37Z</time>
      </trkpt>
      <trkpt lat="47.17903" lon="-1.52116">
        <ele>6.2</ele>
        <time>2012-09-16T06:58:37Z</time>
      </trkpt>
      <trkpt lat="47.17821" lon="-1.52164">
        <ele>9.9</ele>
        <time>2012-09-16T06:58:37Z</time>
      </trkpt>
      <trkpt lat="47.17735" lon="-1.52214">
        <ele>8</ele>
        <time>2012-09-16T06:58:37Z</time>
      </trkpt>
      <trkpt lat="47.17678" lon="-1.52142">
        <ele>6.9</ele>
        <time>2012-09-16T06:58:37Z</time>
      </trkpt>
      <trkpt lat="47.17596" lon="-1.52164">
        <ele>5.8</ele>
        <time>2012-09-16T06:58:37Z</time>
      </trkpt>
      <trkpt lat="47.175" lon="-1.52163">
        <ele>6.7</ele>
        <time>2012-09-16T06:58:37Z</time>
      </trkpt>
      <trkpt lat="47.17436" lon="-1.52219">
        <ele>8.3</ele>
        <time>2012-09-16T06:58:37Z</time>
      </trkpt>
      <trkpt lat="47.17381" lon="-1.52279">
        <ele>11.6</ele>
        <time>2012-09-16T06:58:37Z</time>
      </trkpt>
      <trkpt lat="47.17303" lon="-1.5228">
        <ele>14.2</ele>
        <time>2012-09-16T06:58:37Z</time>
      </trkpt>
      <trkpt lat="47.17234" lon="-1.52187">
        <ele>16.2</ele>
        <time>2012-09-16T06:58:37Z</time>
      </trkpt>
      <trkpt lat="47.17156" lon="-1.52127">
        <ele>13.7</ele>
        <time>2012-09-16T06:58:37Z</time>
      </trkpt>
      <trkpt lat="47.17075" lon="-1.52093">
        <ele>7.3</ele>
        <time>2012-09-16T06:58:37Z</time>
      </trkpt>
      <trkpt lat="47.16995" lon="-1.52061">
        <ele>4.2</ele>
        <time>2012-09-16T06:58:37Z</time>
      </trkpt>
      <trkpt lat="47.16937" lon="-1.52093">
        <ele>5.1</ele>
        <time>2012-09-16T06:58:37Z</time>
      </trkpt>
      <trkpt lat="47.16941" lon="-1.52234">
        <ele>9</ele>
        <time>2012-09-16T06:58:37Z</time>
      </trkpt>
      <trkpt lat="47.16938" lon="-1.52369">
        <ele>14.3</ele>
        <time>2012-09-16T06:58:37Z</time>
      </trkpt>
      <trkpt lat="47.16902" lon="-1.52475">
        <ele>18.1</ele>
        <time>2012-09-16T06:58:37Z</time>
      </trkpt>
      <trkpt lat="47.16822" lon="-1.52527">
        <ele>19</ele>
        <time>2012-09-16T06:58:37Z</time>
      </trkpt>
      <trkpt lat="47.16757" lon="-1.52431">
        <ele>16.9</ele>
        <time>2012-09-16T06:58:37Z</time>
      </trkpt>
      <trkpt lat="47.16701" lon="-1.52523">
        <ele>17.1</ele>
        <time>2012-09-16T06:58:37Z</time>
      </trkpt>
      <trkpt lat="47.16646" lon="-1.52486">
        <ele>16.2</ele>
        <time>2012-09-16T06:58:37Z</time>
      </trkpt>
      <trkpt lat="47.16566" lon="-1.52436">
        <ele>10.6</ele>
        <time>2012-09-16T06:58:37Z</time>
      </trkpt>
      <trkpt lat="47.16522" lon="-1.52523">
        <ele>13.7</ele>
        <time>2012-09-16T06:58:37Z</time>
      </trkpt>
      <trkpt lat="47.16486" lon="-1.52635">
        <ele>18.4</ele>
        <time>2012-09-16T06:58:37Z</time>
      </trkpt>
      <trkpt lat="47.16405" lon="-1.52681">
        <ele>21.9</ele>
        <time>2012-09-16T06:58:37Z</time>
      </trkpt>
      <trkpt lat="47.16356" lon="-1.52764">
        <ele>26.5</ele>
        <time>2012-09-16T06:58:37Z</time>
      </trkpt>
      <trkpt lat="47.16341" lon="-1.52821">
        <ele>26.3</ele>
        <time>2012-09-16T06:58:37Z</time>
      </trkpt>
      <trkpt lat="47.16253" lon="-1.52858">
        <ele>23.1</ele>
        <time>2012-09-16T06:58:37Z</time>
      </trkpt>
      <trkpt lat="47.16214" lon="-1.5298">
        <ele>23.2</ele>
        <time>2012-09-16T06:58:37Z</time>
      </trkpt>
      <trkpt lat="47.16193" lon="-1.53125">
        <ele>26.5</ele>
        <time>2012-09-16T06:58:37Z</time>
      </trkpt>
      <trkpt lat="47.16253" lon="-1.53226">
        <ele>29.3</ele>
        <time>2012-09-16T06:58:37Z</time>
      </trkpt>
      <trkpt lat="47.16315" lon="-1.53333">
        <ele>31.6</ele>
        <time>2012-09-16T06:58:37Z</time>
      </trkpt>
      <trkpt lat="47.16338" lon="-1.53463">
        <ele>33.8</ele>
        <time>2012-09-16T06:58:37Z</time>
      </trkpt>
      <trkpt lat="47.16319" lon="-1.53608">
        <ele>35</ele>
        <time>2012-09-16T06:58:37Z</time>
      </trkpt>
      <trkpt lat="47.16297" lon="-1.53739">
        <ele>36</ele>
        <time>2012-09-16T06:58:37Z</time>
      </trkpt>
      <trkpt lat="47.16361" lon="-1.53838">
        <ele>36</ele>
        <time>2012-09-16T06:58:37Z</time>
      </trkpt>
      <trkpt lat="47.16441" lon="-1.53908">
        <ele>36</ele>
        <time>2012-09-16T06:58:37Z</time>
      </trkpt>
      <trkpt lat="47.165" lon="-1.54015">
        <ele>36.5</ele>
        <time>2012-09-16T06:58:37Z</time>
      </trkpt>
      <trkpt lat="47.16501" lon="-1.54163">
        <ele>37</ele>
        <time>2012-09-16T06:58:37Z</time>
      </trkpt>
      <trkpt lat="47.16492" lon="-1.54288">
        <ele>37</ele>
        <time>2012-09-16T06:58:37Z</time>
      </trkpt>
      <trkpt lat="47.16422" lon="-1.5437">
        <ele>36</ele>
        <time>2012-09-16T06:58:37Z</time>
      </trkpt>
      <trkpt lat="47.16367" lon="-1.54471">
        <ele>35</ele>
        <time>2012-09-16T06:58:37Z</time>
      </trkpt>
      <trkpt lat="47.16312" lon="-1.54584">
        <ele>34</ele>
        <time>2012-09-16T06:58:37Z</time>
      </trkpt>
      <trkpt lat="47.16256" lon="-1.5469">
        <ele>33.2</ele>
        <time>2012-09-16T06:58:37Z</time>
      </trkpt>
      <trkpt lat="47.16216" lon="-1.54815">
        <ele>32</ele>
        <time>2012-09-16T06:58:37Z</time>
      </trkpt>
      <trkpt lat="47.16168" lon="-1.54944">
        <ele>31</ele>
        <time>2012-09-16T06:58:37Z</time>
      </trkpt>
      <trkpt lat="47.16137" lon="-1.55054">
        <ele>31.9</ele>
        <time>2012-09-16T06:58:37Z</time>
      </trkpt>
      <trkpt lat="47.16108" lon="-1.55189">
        <ele>32</ele>
        <time>2012-09-16T06:58:37Z</time>
      </trkpt>
      <trkpt lat="47.16116" lon="-1.55333">
        <ele>33</ele>
        <time>2012-09-16T06:58:37Z</time>
      </trkpt>
      <trkpt lat="47.16134" lon="-1.55473">
        <ele>33.2</ele>
        <time>2012-09-16T06:58:37Z</time>
      </trkpt>
      <trkpt lat="47.16214" lon="-1.55461">
        <ele>31.6</ele>
        <time>2012-09-16T06:58:37Z</time>
      </trkpt>
      <trkpt lat="47.16294" lon="-1.55417">
        <ele>31</ele>
        <time>2012-09-16T06:58:37Z</time>
      </trkpt>
      <trkpt lat="47.16353" lon="-1.55458">
        <ele>31</ele>
        <time>2012-09-16T06:58:37Z</time>
      </trkpt>
      <trkpt lat="47.16408" lon="-1.55562">
        <ele>30.5</ele>
        <time>2012-09-16T06:58:37Z</time>
      </trkpt>
      <trkpt lat="47.16485" lon="-1.55632">
        <ele>29.7</ele>
        <time>2012-09-16T06:58:37Z</time>
      </trkpt>
      <trkpt lat="47.1656" lon="-1.55702">
        <ele>28</ele>
        <time>2012-09-16T06:58:37Z</time>
      </trkpt>
      <trkpt lat="47.16648" lon="-1.5574">
        <ele>27</ele>
        <time>2012-09-16T06:58:37Z</time>
      </trkpt>
      <trkpt lat="47.16697" lon="-1.55857">
        <ele>26.1</ele>
        <time>2012-09-16T06:58:37Z</time>
      </trkpt>
      <trkpt lat="47.16734" lon="-1.55975">
        <ele>26</ele>
        <time>2012-09-16T06:58:37Z</time>
      </trkpt>
      <trkpt lat="47.16772" lon="-1.56074">
        <ele>26</ele>
        <time>2012-09-16T06:58:37Z</time>
      </trkpt>
      <trkpt lat="47.16805" lon="-1.56015">
        <ele>25.6</ele>
        <time>2012-09-16T06:58:37Z</time>
      </trkpt>
      <trkpt lat="47.1688" lon="-1.56077">
        <ele>25</ele>
        <time>2012-09-16T06:58:37Z</time>
      </trkpt>
      <trkpt lat="47.16939" lon="-1.56166">
        <ele>25</ele>
        <time>2012-09-16T06:58:37Z</time>
      </trkpt>
      <trkpt lat="47.16995" lon="-1.56247">
        <ele>24.3</ele>
        <time>2012-09-16T06:58:37Z</time>
      </trkpt>
      <trkpt lat="47.17072" lon="-1.56235">
        <ele>24</ele>
        <time>2012-09-16T06:58:37Z</time>
      </trkpt>
      <trkpt lat="47.17132" lon="-1.56328">
        <ele>24</ele>
        <time>2012-09-16T06:58:37Z</time>
      </trkpt>
      <trkpt lat="47.17209" lon="-1.56331">
        <ele>25.6</ele>
        <time>2012-09-16T06:58:37Z</time>
      </trkpt>
      <trkpt lat="47.17265" lon="-1.56443">
        <ele>26.1</ele>
        <time>2012-09-16T06:58:37Z</time>
      </trkpt>
      <trkpt lat="47.17337" lon="-1.56517">
        <ele>25.5</ele>
        <time>2012-09-16T06:58:37Z</time>
      </trkpt>
      <trkpt lat="47.17408" lon="-1.56574">
        <ele>23.5</ele>
        <time>2012-09-16T06:58:37Z</time>
      </trkpt>
      <trkpt lat="47.17487" lon="-1.56624">
        <ele>25.8</ele>
        <time>2012-09-16T06:58:37Z</time>
      </trkpt>
      <trkpt lat="47.17556" lon="-1.567">
        <ele>27</ele>
        <time>2012-09-16T06:58:37Z</time>
      </trkpt>
      <trkpt lat="47.17556" lon="-1.5684">
        <ele>22.8</ele>
        <time>2012-09-16T06:58:37Z</time>
      </trkpt>
      <trkpt lat="47.17616" lon="-1.56938">
        <ele>21.6</ele>
        <time>2012-09-16T06:58:37Z</time>
      </trkpt>
      <trkpt lat="47.17677" lon="-1.57036">
        <ele>22.2</ele>
        <time>2012-09-16T06:58:37Z</time>
      </trkpt>
      <trkpt lat="47.17743" lon="-1.57136">
        <ele>20.6</ele>
        <time>2012-09-16T06:58:37Z</time>
      </trkpt>
      <trkpt lat="47.17807" lon="-1.57232">
        <ele>19.7</ele>
        <time>2012-09-16T06:58:37Z</time>
      </trkpt>
      <trkpt lat="47.17864" lon="-1.57331">
        <ele>16.8</ele>
        <time>2012-09-16T06:58:37Z</time>
      </trkpt>
      <trkpt lat="47.17937" lon="-1.574">
        <ele>16.5</ele>
        <time>2012-09-16T06:58:37Z</time>
      </trkpt>
      <trkpt lat="47.18023" lon="-1.57411">
        <ele>16</ele>
        <time>2012-09-16T06:58:37Z</time>
      </trkpt>
      <trkpt lat="47.18106" lon="-1.5737">
        <ele>14.2</ele>
        <time>2012-09-16T06:58:37Z</time>
      </trkpt>
      <trkpt lat="47.18197" lon="-1.57384">
        <ele>15.1</ele>
        <time>2012-09-16T06:58:37Z</time>
      </trkpt>
      <trkpt lat="47.1827" lon="-1.57468">
        <ele>15.2</ele>
        <time>2012-09-16T06:58:37Z</time>
      </trkpt>
      <trkpt lat="47.18348" lon="-1.57461">
        <ele>12.2</ele>
        <time>2012-09-16T06:58:37Z</time>
      </trkpt>
      <trkpt lat="47.18428" lon="-1.57427">
        <ele>11.9</ele>
        <time>2012-09-16T06:58:37Z</time>
      </trkpt>
      <trkpt lat="47.1851" lon="-1.57401">
        <ele>10.3</ele>
        <time>2012-09-16T06:58:37Z</time>
      </trkpt>
      <trkpt lat="47.18584" lon="-1.57368">
        <ele>13</ele>
        <time>2012-09-16T06:58:37Z</time>
      </trkpt>
      <trkpt lat="47.18661" lon="-1.57407">
        <ele>6.7</ele>
        <time>2012-09-16T06:58:37Z</time>
      </trkpt>
      <trkpt lat="47.18746" lon="-1.57417">
        <ele>7.9</ele>
        <time>2012-09-16T06:58:37Z</time>
      </trkpt>
      <trkpt lat="47.18808" lon="-1.57499">
        <ele>5</ele>
        <time>2012-09-16T06:58:37Z</time>
      </trkpt>
      <trkpt lat="47.18886" lon="-1.57543">
        <ele>5.4</ele>
        <time>2012-09-16T06:58:37Z</time>
      </trkpt>
      <trkpt lat="47.18967" lon="-1.57584">
        <ele>4</ele>
        <time>2012-09-16T06:58:37Z</time>
      </trkpt>
      <trkpt lat="47.19028" lon="-1.57553">
        <ele>4.1</ele>
        <time>2012-09-16T06:58:37Z</time>
      </trkpt>
      <trkpt lat="47.19073" lon="-1.57463">
        <ele>4.5</ele>
        <time>2012-09-16T06:58:37Z</time>
      </trkpt>
      <trkpt lat="47.19111" lon="-1.57364">
        <ele>4</ele>
        <time>2012-09-16T06:58:37Z</time>
      </trkpt>
      <trkpt lat="47.1913" lon="-1.5725">
        <ele>4.3</ele>
        <time>2012-09-16T06:58:37Z</time>
      </trkpt>
      <trkpt lat="47.19205" lon="-1.57255">
        <ele>3.1</ele>
        <time>2012-09-16T06:58:37Z</time>
      </trkpt>
      <trkpt lat="47.1923" lon="-1.57146">
        <ele>5.6</ele>
        <time>2012-09-16T06:58:37Z</time>
      </trkpt>
      <trkpt lat="47.1925" lon="-1.57021">
        <ele>6</ele>
        <time>2012-09-16T06:58:37Z</time>
      </trkpt>
      <trkpt lat="47.19268" lon="-1.56908">
        <ele>5.6</ele>
        <time>2012-09-16T06:58:37Z</time>
      </trkpt>
      <trkpt lat="47.19214" lon="-1.56838">
        <ele>4.3</ele>
        <time>2012-09-16T06:58:37Z</time>
      </trkpt>
      <trkpt lat="47.19219" lon="-1.56641">
        <ele>3.4</ele>
        <time>2012-09-16T06:58:37Z</time>
      </trkpt>
      <trkpt lat="47.19229" lon="-1.56494">
        <ele>4.8</ele>
        <time>2012-09-16T06:58:37Z</time>
      </trkpt>
      <trkpt lat="47.19199" lon="-1.5646">
        <ele>7</ele>
        <time>2012-09-16T06:58:37Z</time>
      </trkpt>
      <trkpt lat="47.19216" lon="-1.56349">
        <ele>5.4</ele>
        <time>2012-09-16T06:58:37Z</time>
      </trkpt>
      <trkpt lat="47.19223" lon="-1.56203">
        <ele>5.1</ele>
        <time>2012-09-16T06:58:37Z</time>
      </trkpt>
      <trkpt lat="47.19228" lon="-1.56067">
        <ele>4.8</ele>
        <time>2012-09-16T06:58:37Z</time>
      </trkpt>
      <trkpt lat="47.19216" lon="-1.55912">
        <ele>6.9</ele>
        <time>2012-09-16T06:58:37Z</time>
      </trkpt>
      <trkpt lat="47.19206" lon="-1.55768">
        <ele>6.8</ele>
        <time>2012-09-16T06:58:37Z</time>
      </trkpt>
      <trkpt lat="47.19201" lon="-1.55622">
        <ele>4.9</ele>
        <time>2012-09-16T06:58:37Z</time>
      </trkpt>
      <trkpt lat="47.19199" lon="-1.55506">
        <ele>4.5</ele>
        <time>2012-09-16T06:58:37Z</time>
      </trkpt>
      <trkpt lat="47.19151" lon="-1.554">
        <ele>5.8</ele>
        <time>2012-09-16T06:58:37Z</time>
      </trkpt>
      <trkpt lat="47.19092" lon="-1.55316">
        <ele>8.7</ele>
        <time>2012-09-16T06:58:37Z</time>
      </trkpt>
      <trkpt lat="47.19028" lon="-1.55233">
        <ele>10.6</ele>
        <time>2012-09-16T06:58:37Z</time>
      </trkpt>
      <trkpt lat="47.18948" lon="-1.55188">
        <ele>13.3</ele>
        <time>2012-09-16T06:58:37Z</time>
      </trkpt>
      <trkpt lat="47.18882" lon="-1.55121">
        <ele>15</ele>
        <time>2012-09-16T06:58:37Z</time>
      </trkpt>
      <trkpt lat="47.18836" lon="-1.55017">
        <ele>15</ele>
        <time>2012-09-16T06:58:37Z</time>
      </trkpt>
      <trkpt lat="47.18813" lon="-1.54885">
        <ele>14.6</ele>
        <time>2012-09-16T06:58:37Z</time>
      </trkpt>
      <trkpt lat="47.18808" lon="-1.54742">
        <ele>12.9</ele>
        <time>2012-09-16T06:58:37Z</time>
      </trkpt>
      <trkpt lat="47.18861" lon="-1.54675">
        <ele>12.7</ele>
        <time>2012-09-16T06:58:37Z</time>
      </trkpt>
      <trkpt lat="47.18896" lon="-1.54674">
        <ele>10</ele>
        <time>2012-09-16T06:58:37Z</time>
      </trkpt>
      <trkpt lat="47.18965" lon="-1.54603">
        <ele>11.4</ele>
        <time>2012-09-16T06:58:37Z</time>
      </trkpt>
      <trkpt lat="47.19039" lon="-1.54543">
        <ele>11.9</ele>
        <time>2012-09-16T06:58:37Z</time>
      </trkpt>
      <trkpt lat="47.19062" lon="-1.54519">
        <ele>11.2</ele>
        <time>2012-09-16T06:58:37Z</time>
      </trkpt>
      <trkpt lat="47.19131" lon="-1.54498">
        <ele>8.1</ele>
        <time>2012-09-16T06:58:37Z</time>
      </trkpt>
      <trkpt lat="47.19133" lon="-1.54498">
        <ele>7.8</ele>
        <time>2012-09-16T06:58:37Z</time>
      </trkpt>
      <trkpt lat="47.19135" lon="-1.54498">
        <ele>7.6</ele>
        <time>2012-09-16T06:58:37Z</time>
      </trkpt>
      <trkpt lat="47.19137" lon="-1.54498">
        <ele>7.3</ele>
        <time>2012-09-16T06:58:37Z</time>
      </trkpt>
      <trkpt lat="47.19139" lon="-1.54497">
        <ele>7</ele>
        <time>2012-09-16T06:58:37Z</time>
      </trkpt>
      <trkpt lat="47.19141" lon="-1.54495">
        <ele>6.9</ele>
        <time>2012-09-16T06:58:37Z</time>
      </trkpt>
      <trkpt lat="47.19143" lon="-1.54493">
        <ele>6.9</ele>
        <time>2012-09-16T06:58:37Z</time>
      </trkpt>
      <trkpt lat="47.19145" lon="-1.54492">
        <ele>6.8</ele>
        <time>2012-09-16T06:58:37Z</time>
      </trkpt>
      <trkpt lat="47.19147" lon="-1.54491">
        <ele>6.7</ele>
        <time>2012-09-16T06:58:37Z</time>
      </trkpt>
      <trkpt lat="47.19148" lon="-1.54489">
        <ele>6.7</ele>
        <time>2012-09-16T06:58:37Z</time>
      </trkpt>
      <trkpt lat="47.19148" lon="-1.54487">
        <ele>6.7</ele>
        <time>2012-09-16T06:58:37Z</time>
      </trkpt>
      <trkpt lat="47.19148" lon="-1.54484">
        <ele>6.7</ele>
        <time>2012-09-16T06:58:37Z</time>
      </trkpt>
      <trkpt lat="47.19148" lon="-1.54482">
        <ele>6.7</ele>
        <time>2012-09-16T06:58:37Z</time>
      </trkpt>
      <trkpt lat="47.19148" lon="-1.5448">
        <ele>6.7</ele>
        <time>2012-09-16T06:58:37Z</time>
      </trkpt>
      <trkpt lat="47.19148" lon="-1.54477">
        <ele>6.7</ele>
        <time>2012-09-16T06:58:37Z</time>
      </trkpt>
      <trkpt lat="47.19147" lon="-1.54475">
        <ele>6.7</ele>
        <time>2012-09-16T06:58:37Z</time>
      </trkpt>
      <trkpt lat="47.19147" lon="-1.54473">
        <ele>6.7</ele>
        <time>2012-09-16T06:58:37Z</time>
      </trkpt>
      <trkpt lat="47.19147" lon="-1.5447">
        <ele>6.7</ele>
        <time>2012-09-16T06:58:37Z</time>
      </trkpt>
      <trkpt lat="47.19148" lon="-1.54468">
        <ele>6.7</ele>
        <time>2012-09-16T06:58:37Z</time>
      </trkpt>
      <trkpt lat="47.19148" lon="-1.54465">
        <ele>6.7</ele>
        <time>2012-09-16T06:58:37Z</time>
      </trkpt>
      <trkpt lat="47.19148" lon="-1.54462">
        <ele>6.7</ele>
        <time>2012-09-16T06:58:37Z</time>
      </trkpt>
      <trkpt lat="47.19149" lon="-1.5446">
        <ele>6.6</ele>
        <time>2012-09-16T06:58:37Z</time>
      </trkpt>
      <trkpt lat="47.1915" lon="-1.54459">
        <ele>6.6</ele>
        <time>2012-09-16T06:58:37Z</time>
      </trkpt>
    </trkseg>
  </trk>
</gpx>